User: anonymous   Login
Location: Theydon Bois
(51.6750°N, 0.1050°E)
Time: 02:07:30
(UTC+00:00)
Language:

ISS - Orbit

View from above orbital plane
View from above orbital plane
View from above satellite
View from above satellite

Ground track
Ground track

The orbit data is extracted from the following two-line orbital elements,

1 25544U 98067A   20022.52325368  .00016717  00000-0  10270-3 0  9029
2 25544  51.6410 354.1462 0004508 156.9041 203.2312 15.49575377  9271
Epoch (UTC): 22 January 2020 12:33:29
Eccentricity: 0.0004508
inclination: 51.6410°
perigee height: 415 km
apogee height: 421 km
right ascension of ascending node: 354.1462°
argument of perigee: 156.9041°
revolutions per day: 15.49575377
mean anomaly at epoch: 203.2312°
orbit number at epoch: 927

The dashed part of the orbit path shows where the satellite is in the earth's shadow,  

DLR